Hourly Data Report for October 16, 2013

All times are specified in Local Standard Time (LST). Add 1 hour to adjust for Daylight Saving Time where and when it is observed.

TORONTO INTL A
ONTARIO

43°40'36.000" N
79°37'50.000" W
173.40 m
6158731
71624
YYZ

Download Data

Hourly Data (October 2013)
Hourly Data Report for October 16, 2013
Temp Definition
°C
Dew Point Temp Definition
°C
Rel Hum Definition
%
Wind Dir Definition
10's deg

Wind Spd Definition
km/h
Visibility Definition
km
Stn Press Definition
kPa
Hmdx Definition


Wind Chill Definition


Weather Definition


TIME
00:00 Legend Double Dagger 16.4 14.3 87 14 8 24.1 99.11     LegendNANA
01:00 Legend Double Dagger 15.9 14.6 92 14 13 9.7 99.05     Rain Showers
02:00 Legend Double Dagger 16.2 15.3 94 17 14 8.1 99.01     Moderate Rain Showers
03:00 Legend Double Dagger 16.4 15.4 94 18 21 9.7 98.92     Rain Showers
04:00 Legend Double Dagger 16.6 15.6 94 19 18 6.4 98.88     Rain Showers
05:00 Legend Double Dagger 16.9 15.6 92 20 19 19.3 98.89     Rain Showers
06:00 Legend Double Dagger 16.3 14.9 91 20 15 24.1 98.90     LegendNANA
07:00 Legend Double Dagger 16.2 14.8 91 20 11 19.3 98.93     Mostly Cloudy
08:00 Legend Double Dagger 17.1 15.3 89 20 10 24.1 98.95     LegendNANA
09:00 Legend Double Dagger 18.0 15.5 85 22 17 24.1 98.95     LegendNANA
10:00 Legend Double Dagger 19.5 15.2 76 21 23 24.1 98.88     Mostly Cloudy
11:00 Legend Double Dagger 20.0 15.1 73 21 22 24.1 98.85     LegendNANA
12:00 Legend Double Dagger 20.3 15.2 72 19 17 24.1 98.73     LegendNANA
13:00 Legend Double Dagger 18.9 16.5 86 21 18 19.3 98.70     Rain Showers
14:00 Legend Double Dagger 20.8 16.1 74 20 27 24.1 98.64 25   LegendNANA
15:00 Legend Double Dagger 19.8 13.8 68 29 17 24.1 98.59     LegendNANA
16:00 Legend Double Dagger 19.0 12.6 66 29 21 24.1 98.62     Mostly Cloudy
17:00 Legend Double Dagger 17.8 10.8 63 28 19 24.1 98.64     LegendNANA
18:00 Legend Double Dagger 15.8 8.4 61 29 19 24.1 98.66     LegendNANA
19:00 Legend Double Dagger 14.7 7.6 62 29 21 24.1 98.76     Clear
20:00 Legend Double Dagger 13.2 7.9 70 28 17 24.1 98.82     LegendNANA
21:00 Legend Double Dagger 11.9 8.0 77 26 12 24.1 98.90     LegendNANA
22:00 Legend Double Dagger 10.3 7.7 84 25 13 24.1 98.93     Mainly Clear
23:00 Legend Double Dagger 11.6 8.5 81 24 19 24.1 98.91     LegendNANA

Notes on Data Quality.

Legend

  • E = Estimated
  • M = Missing
  • NA = Not Available
  • ‡ = Partner data that is not subject to review by the National Climate Archives
Date modified: